This is the latest recevied weather packets stored in our database for station/object NQ9F. If no packets are shown the sender has not sent any weather packets the latest 10 day(s).
| Time | Temp. | Humidity | Pressure | Rain* | Wind** | Luminosity | Snow |
|---|---|---|---|---|---|---|---|
| 1778030554 | 18.33° C | 77% | 1007.4 hPa | 0 mm | - | 1 W/m² | - |
| 1778030251 | 18.33° C | 77% | 1007.3 hPa | 0 mm | - | 1 W/m² | - |
| 1778029947 | 18.89° C | 77% | 1007.1 hPa | 0 mm | - | 3 W/m² | - |
| 1778029646 | 18.89° C | 77% | 1006.9 hPa | 0 mm | - | 10 W/m² | - |
| 1778029343 | 18.89° C | 77% | 1006.4 hPa | 0 mm | - | 12 W/m² | - |
| 1778029040 | 18.89° C | 76% | 1006.5 hPa | 0 mm | - | 15 W/m² | - |
| 1778028736 | 19.44° C | 75% | 1006.4 hPa | 0 mm | - | 27 W/m² | - |
| 1778028432 | 19.44° C | 75% | 1006.2 hPa | 0 mm | - | 38 W/m² | - |
| 1778028130 | 19.44° C | 75% | 1006.2 hPa | 0 mm | - | 45 W/m² | - |
| 1778027826 | 19.44° C | 75% | 1006.1 hPa | 0 mm | - | 52 W/m² | - |
| 1778027522 | 20° C | 74% | 1006.3 hPa | 0 mm | - | 37 W/m² | - |
| 1778027218 | 20° C | 74% | 1006.3 hPa | 0 mm | - | 37 W/m² | - |
| 1778026915 | 20.56° C | 73% | 1006.4 hPa | 0 mm | - | 31 W/m² | - |
| 1778026610 | 20.56° C | 72% | 1006.3 hPa | 0 mm | - | 40 W/m² | - |
| 1778026308 | 20.56° C | 73% | 1006 hPa | 0 mm | - | 28 W/m² | - |
| 1778026005 | 21.11° C | 71% | 1006.1 hPa | 0 mm | - | 26 W/m² | - |
| 1778025702 | 21.11° C | 71% | 1006 hPa | 0 mm | - | 35 W/m² | - |
| 1778025400 | 21.11° C | 70% | 1006 hPa | 0 mm | - | 26 W/m² | - |
| 1778025097 | 21.67° C | 71% | 1006.4 hPa | 0 mm | - | 25 W/m² | - |
| 1778024794 | 21.67° C | 70% | 1006.2 hPa | 0 mm | - | 33 W/m² | - |
| 1778024491 | 21.67° C | 71% | 1006 hPa | 0 mm | - | 47 W/m² | - |
| 1778024188 | 21.67° C | 70% | 1006.1 hPa | 0 mm | - | 53 W/m² | - |
| 1778023886 | 22.22° C | 70% | 1005.9 hPa | 0 mm | - | 54 W/m² | - |
| 1778023583 | 22.22° C | 69% | 1005.8 hPa | 0 mm | - | 65 W/m² | - |
| 1778023281 | 22.78° C | 68% | 1005.7 hPa | 0 mm | - | 93 W/m² | - |
* Rain latest hour (hover to see other rain measurements)
** Current wind speed in m/s (hover to see current wind gust speed)